| time (UTC) | temp C | wind direction | speed KPH | gust KPH | rain 1hr cm | rain 24hr cm | rain mn cm | humidity % | barometer mb |
| 20260506204904 | 8 | 81 | 1.6 | 9.7 | 0.00 | 0.00 | 0.00 | 44 | 1011.2 |
| 20260506204405 | 8 | 97 | 1.6 | 8.0 | 0.00 | 0.00 | 0.00 | 45 | 1011.2 |
| 20260506203904 | 8 | 109 | 1.6 | 8.0 | 0.00 | 0.00 | 0.00 | 47 | 1011.2 |
| 20260506201903 | 10 | 76 | 3.2 | 14.5 | 0.00 | 0.00 | 0.00 | 49 | 1010.9 |
| 20260506194904 | 11 | 126 | 1.6 | 8.0 | 0.00 | 0.00 | 0.00 | 50 | 1010.5 |
| 20260506194404 | 11 | 113 | 0.0 | 1.6 | 0.00 | 0.00 | 0.00 | 49 | 1010.4 |
| 20260506193904 | 11 | 114 | 0.0 | 4.8 | 0.00 | 0.00 | 0.00 | 49 | 1010.4 |
| 20260506191905 | 11 | 88 | 1.6 | 4.8 | 0.00 | 0.00 | 0.00 | 49 | 1010.3 |
| 20260506191404 | 11 | 81 | 0.0 | 4.8 | 0.00 | 0.00 | 0.00 | 49 | 1010.2 |
| 20260506184405 | 11 | 94 | 0.0 | 8.0 | 0.00 | 0.00 | 0.00 | 47 | 1010.2 |
| 20260506183904 | 11 | 114 | 1.6 | 8.0 | 0.00 | 0.00 | 0.00 | 47 | 1010.2 |
| 20260506183405 | 11 | 125 | 3.2 | 9.7 | 0.00 | 0.00 | 0.00 | 46 | 1010.2 |
| 20260506181403 | 12 | 71 | 0.0 | 3.2 | 0.00 | 0.00 | 0.00 | 44 | 1010.1 |
| 20260506180904 | 12 | 72 | 1.6 | 4.8 | 0.00 | 0.00 | 0.00 | 45 | 1010.1 |
| 20260506174404 | 12 | 54 | 1.6 | 8.0 | 0.00 | 0.00 | 0.00 | 44 | 1010.2 |
| 20260506164903 | 12 | 63 | 1.6 | 8.0 | 0.00 | 0.00 | 0.00 | 40 | 1010.2 |
| 20260506161904 | 12 | 97 | 1.6 | 8.0 | 0.00 | 0.00 | 0.00 | 40 | 1010.4 |
| 20260506161404 | 12 | 82 | 0.0 | 4.8 | 0.00 | 0.00 | 0.00 | 40 | 1010.4 |
| 20260506160904 | 12 | 73 | 1.6 | 16.1 | 0.00 | 0.00 | 0.00 | 43 | 1010.4 |
| 20260506160403 | 12 | 79 | 0.0 | 4.8 | 0.00 | 0.00 | 0.00 | 42 | 1010.4 |
| 20260506153904 | 12 | 26 | 1.6 | 4.8 | 0.00 | 0.00 | 0.00 | 39 | 1010.5 |
| 20260506151404 | 12 | 56 | 6.4 | 11.3 | 0.00 | 0.00 | 0.00 | 39 | 1010.6 |
| 20260506150904 | 12 | 111 | 0.0 | 0.0 | 0.00 | 0.00 | 0.00 | 42 | 1010.6 |
| 20260506144903 | 12 | 88 | 0.0 | 4.8 | 0.00 | 0.00 | 0.00 | 40 | 1010.7 |
| 20260506144405 | 12 | 54 | 1.6 | 8.0 | 0.00 | 0.00 | 0.00 | 42 | 1010.7 |
| 20260506143904 | 12 | 133 | 1.6 | 9.7 | 0.00 | 0.00 | 0.00 | 40 | 1010.8 |
| 20260506134405 | 12 | 139 | 3.2 | 11.3 | 0.00 | 0.00 | 0.00 | 41 | 1011.2 |
| 20260506133404 | 12 | 139 | 1.6 | 16.1 | 0.00 | 0.00 | 0.00 | 44 | 1011.2 |
| 20260506130904 | 12 | 96 | 0.0 | 8.0 | 0.00 | 0.00 | 0.00 | 40 | 1011.3 |
| 20260506130404 | 12 | 71 | 1.6 | 11.3 | 0.00 | 0.00 | 0.00 | 43 | 1011.3 |
| 20260506120903 | 12 | 82 | 1.6 | 9.7 | 0.00 | 0.00 | 0.00 | 41 | 1011.7 |
| 20260506120403 | 12 | 75 | 1.6 | 16.1 | 0.00 | 0.00 | 0.00 | 41 | 1011.7 |
| 20260506113905 | 11 | 95 | 1.6 | 4.8 | 0.00 | 0.00 | 0.00 | 34 | 1011.7 |
| 20260506111405 | 11 | 66 | 0.0 | 11.3 | 0.00 | 0.00 | 0.00 | 34 | 1012.0 |
| 20260506110903 | 11 | 39 | 6.4 | 14.5 | 0.00 | 0.00 | 0.00 | 33 | 1012.1 |
| 20260506110405 | 11 | 58 | 1.6 | 9.7 | 0.00 | 0.00 | 0.00 | 27 | 1012.1 |
| 20260506104404 | 10 | 54 | 0.0 | 4.8 | 0.00 | 0.00 | 0.00 | 34 | 1012.2 |
| 20260506103905 | 10 | 125 | 1.6 | 8.0 | 0.00 | 0.00 | 0.00 | 27 | 1012.2 |
| 20260506103404 | 10 | 105 | 1.6 | 11.3 | 0.00 | 0.00 | 0.00 | 25 | 1012.1 |
| 20260506101903 | 8 | 60 | 1.6 | 11.3 | 0.00 | 0.00 | 0.00 | 19 | 1012.2 |
| 20260506101405 | 8 | 71 | 1.6 | 9.7 | 0.00 | 0.00 | 0.00 | 27 | 1012.2 |
| 20260506094403 | 8 | 111 | 1.6 | 4.8 | 0.00 | 0.00 | 0.00 | 14 | 1012.4 |
| 20260506093403 | 8 | 69 | 3.2 | 12.9 | 0.00 | 0.00 | 0.00 | 14 | 1012.5 |
| 20260506091904 | 7 | 67 | 0.0 | 4.8 | 0.00 | 0.00 | 0.00 | 16 | 1012.5 |
| 20260506083904 | 7 | 49 | 3.2 | 11.3 | 0.00 | 0.00 | 0.00 | 9 | 1012.4 |
| 20260506083403 | 7 | 79 | 4.8 | 14.5 | 0.00 | 0.00 | 0.00 | 6 | 1012.4 |
| 20260506081904 | 7 | 77 | 4.8 | 14.5 | 0.00 | 0.00 | 0.00 | 3 | 1012.5 |
| 20260506080404 | 7 | 57 | 3.2 | 12.9 | 0.00 | 0.00 | 0.00 | 3 | 1012.6 |
| 20260506073404 | 7 | 27 | 4.8 | 19.3 | 0.00 | 0.00 | 0.00 | 3 | 1012.4 |
| 20260506071404 | 6 | 53 | 1.6 | 11.3 | 0.00 | 0.00 | 0.00 | 3 | 1012.4 |
| 20260506070904 | 6 | 51 | 1.6 | 9.7 | 0.00 | 0.00 | 0.00 | 3 | 1012.4 |
| 20260506070404 | 6 | 54 | 3.2 | 11.3 | 0.00 | 0.00 | 0.00 | 3 | 1012.4 |
| 20260506061904 | 6 | 47 | 3.2 | 14.5 | 0.00 | 0.00 | 0.00 | 3 | 1012.1 |
| 20260506060905 | 6 | 50 | 4.8 | 16.1 | 0.00 | 0.00 | 0.00 | 3 | 1011.9 |
| 20260506051404 | 6 | 57 | 1.6 | 4.8 | 0.00 | 0.00 | 0.00 | 3 | 1011.8 |
| 20260506050904 | 6 | 56 | 0.0 | 0.0 | 0.00 | 0.00 | 0.00 | 3 | 1011.8 |
| 20260506044904 | 6 | 65 | 0.0 | 3.2 | 0.00 | 0.00 | 0.00 | 3 | 1011.9 |
| 20260506044403 | 6 | 65 | 0.0 | 0.0 | 0.00 | 0.00 | 0.00 | 3 | 1011.9 |
| 20260506043905 | 6 | 61 | 0.0 | 11.3 | 0.00 | 0.00 | 0.00 | 3 | 1012.0 |
| 20260506043404 | 6 | 98 | 0.0 | 4.8 | 0.00 | 0.00 | 0.00 | 3 | 1012.0 |
| 20260506041903 | 6 | 21 | 1.6 | 4.8 | 0.00 | 0.00 | 0.00 | 3 | 1012.1 |
| 20260506034404 | 7 | 81 | 0.0 | 1.6 | 0.00 | 0.00 | 0.00 | 3 | 1012.2 |
| 20260506033404 | 7 | 81 | 0.0 | 4.8 | 0.00 | 0.00 | 0.00 | 3 | 1012.2 |
| 20260506031403 | 7 | 74 | 1.6 | 4.8 | 0.00 | 0.00 | 0.00 | 3 | 1012.2 |
| 20260506030904 | 7 | 75 | 1.6 | 4.8 | 0.00 | 0.00 | 0.00 | 3 | 1012.2 |
| 20260506024404 | 7 | 13 | 4.8 | 14.5 | 0.00 | 0.00 | 0.00 | 3 | 1012.2 |
| 20260506021403 | 7 | 46 | 1.6 | 9.7 | 0.00 | 0.00 | 0.00 | 3 | 1012.0 |
| 20260506020903 | 7 | 40 | 1.6 | 9.7 | 0.00 | 0.00 | 0.00 | 3 | 1012.0 |
| 20260506020403 | 7 | 61 | 0.0 | 4.8 | 0.00 | 0.00 | 0.00 | 3 | 1012.0 |
| 20260506014404 | 7 | 74 | 0.0 | 1.6 | 0.00 | 0.00 | 0.00 | 3 | 1012.0 |
| 20260506011405 | 7 | 53 | 0.0 | 4.8 | 0.00 | 0.00 | 0.00 | 3 | 1012.2 |
| 20260506010904 | 7 | 72 | 0.0 | 3.2 | 0.00 | 0.00 | 0.00 | 3 | 1012.2 |
| 20260506010405 | 7 | 72 | 0.0 | 8.0 | 0.00 | 0.00 | 0.00 | 3 | 1012.3 |
| 20260506003904 | 7 | 74 | 1.6 | 4.8 | 0.00 | 0.00 | 0.00 | 3 | 1012.3 |
| 20260506003403 | 7 | 76 | 0.0 | 8.0 | 0.00 | 0.00 | 0.00 | 3 | 1012.3 |
| 20260506001903 | 7 | 23 | 1.6 | 11.3 | 0.00 | 0.00 | 0.00 | 3 | 1012.4 |
| 20260505234404 | 7 | 63 | 3.2 | 14.5 | 0.00 | 0.00 | 0.00 | 3 | 1012.3 |
| 20260505233903 | 7 | 44 | 4.8 | 19.3 | 0.00 | 0.00 | 0.00 | 3 | 1012.3 |
| 20260505231903 | 7 | 47 | 1.6 | 11.3 | 0.00 | 0.00 | 0.00 | 3 | 1012.3 |
| 20260505230904 | 7 | 55 | 1.6 | 4.8 | 0.00 | 0.00 | 0.00 | 3 | 1012.3 |
| 20260505230404 | 7 | 49 | 1.6 | 16.1 | 0.00 | 0.00 | 0.00 | 3 | 1012.3 |
| 20260505224904 | 7 | 95 | 0.0 | 11.3 | 0.00 | 0.00 | 0.00 | 3 | 1012.3 |
| 20260505221403 | 7 | 33 | 3.2 | 16.1 | 0.00 | 0.00 | 0.00 | 3 | 1012.4 |
| 20260505220904 | 7 | 69 | 3.2 | 12.9 | 0.00 | 0.00 | 0.00 | 3 | 1012.3 |
| 20260505220403 | 7 | 88 | 1.6 | 11.3 | 0.00 | 0.00 | 0.00 | 3 | 1012.3 |
| 20260505214904 | 8 | 64 | 4.8 | 14.5 | 0.00 | 0.00 | 0.00 | 3 | 1012.3 |
| 20260505214403 | 8 | 76 | 4.8 | 16.1 | 0.00 | 0.00 | 0.00 | 3 | 1012.3 |
| 20260505211404 | 8 | 49 | 3.2 | 16.1 | 0.00 | 0.00 | 0.00 | 3 | 1012.2 |
| 20260505210404 | 8 | 42 | 1.6 | 16.1 | 0.00 | 0.00 | 0.00 | 3 | 1012.1 |